This demonstration page uses our WeatherBlox Daily Observations layout. Learn more.

Left ArrowRight Arrow

36.17497, -115.13722

Hourly Observations for July 11, 2018

Temp ( °F °C ) Dew Point ( °F °C ) Humidity (%) Winds ( mph kmh ) Pressure ( in mb ) Visibility ( mi km ) Precip ( " mm )
12:53 am 00:53 Mostly Clear 86 30 63 17.2 46 46 Calm 29.91 1013 10 16 0.00 0.03
1:53 am 01:53 Clear 86 30 62 16.7 45 45 ENE 3 6 29.90 1013 10 16 0.00 0.00
2:53 am 02:53 Clear 85 29.4 64 17.8 50 50 ESE 5 7 29.89 1012 10 16 0.00 0.03
3:53 am 03:53 Clear 84 28.9 63 17.2 49 49 E 7 11 29.89 1012 10 16 0.00 0.00
4:53 am 04:53 Clear 84 28.9 63 17.2 49 49 E 9 15 29.90 1012 10 16 0.00 0.00
5:53 am 05:53 Sunny 83 28.3 63 17.2 51 51 E 7 11 29.91 1013 10 16 0.00 0.00
6:53 am 06:53 Sunny 84 28.9 63 17.2 49 49 ESE 8 13 29.92 1013 10 16 0.00 0.00
7:53 am 07:53 Sunny 85 29.4 63 17.2 48 48 E 9 15 29.93 1014 10 16 0.00 0.00
8:53 am 08:53 Sunny 86 30 62 16.7 45 45 E 3 6 29.94 1014 10 16 0.00 0.00
9:53 am 09:53 Sunny 87 30.6 62 16.7 43 43 ENE 5 7 29.94 1014 10 16 0.00 0.00
10:53 am 10:53 Sunny 90 32.2 62 16.7 39 39 E 5 7 29.93 1014 10 16 0.00 0.00
11:53 am 11:53 Sunny 92 33.3 61 16.1 36 36 VRB 3 6 29.91 1013 10 16 0.00 0.00
12:53 pm 12:53 Sunny 94 34.4 61 16.1 33 33 SE 5 7 29.88 1012 10 16 0.00 0.00
1:53 pm 13:53 Sunny 96 35.6 59 15 29 29 S 10 17 29.84 1011 10 16 0.00 0.00
2:53 pm 14:53 Sunny 97 36.1 59 15 28 28 E 8 13 29.81 1009 10 16 0.00 0.00
3:53 pm 15:53 Partly Cloudy 92 33.3 63 17.2 38 38 SSW 22 35 29.80 1009 10 16 0.00 0.00
4:53 pm 16:53 Sunny 94 34.4 64 17.8 37 37 SSW 15 24 29.78 1009 10 16 0.00 0.00
5:53 pm 17:53 Sunny 95 35 61 16.1 32 32 S 15 24 29.77 1008 10 16 0.00 0.00
6:53 pm 18:53 Sunny 93 33.9 60 15.6 33 33 S 20 31 29.79 1009 10 16 0.00 0.00
7:53 pm 19:53 Sunny with Nearby Thunderstorms 91 32.8 60 15.6 35 35 S 14 22 29.80 1009 10 16 0.00 0.00
8:37 pm 20:37 Clear 90 32.2 61 16.1 38 38 S 12 19 29.68 1005 10 16 0.00 0.00
8:53 pm 20:53 Clear with Nearby Thunderstorms 90 32.2 61 16.1 38 38 S 13 20 29.83 1010 10 16 0.00 0.00
9:11 pm 21:11 Clear 90 32.2 61 16.1 38 38 SSE 12 19 29.71 1006 10 16 0.00 0.00
9:53 pm 21:53 Partly Cloudy 88 31.1 63 17.2 43 43 SE 16 26 29.86 1011 10 16 0.00 0.00
10:42 pm 22:42 Partly Cloudy with Nearby Thunderstorms 88 31.1 63 17.2 43 43 ESE 8 13 29.77 1008 10 16 0.00 0.00
10:53 pm 22:53 Mostly Clear with Nearby Thunderstorms 88 31.1 63 17.2 43 43 SE 8 13 29.86 1011 10 16 0.00 0.00
11:33 pm 23:33 Mostly Clear with Thunderstorms 87 30.6 64 17.8 46 46 SE 8 13 29.77 1008 10 16 0.00 0.00
11:53 pm 23:53 Clear with Thunderstorms 86 30 64 17.8 48 48 SE 9 15 29.86 1011 10 16 0.00 0.00

Powered by AerisWeather